KF0TNT Weather Reports


time (UTC)temp
C
wind
direction
speed
KPH
gust
KPH
rain 1hr
cm
rain 24hr
cm
rain mn
cm
humidity
%
barometer
mb
20260505153152 0 22 14.5 20.9 0.00 0.03 0.03 94 1015.0
20260505152649 0 28 11.3 19.3 0.00 0.03 0.03 94 1015.0
20260505152144 0 23 8.0 14.5 0.00 0.03 0.03 94 1014.9
20260505151640 0 3 11.3 14.5 0.00 0.03 0.03 94 1015.0
20260505151138 0 19 8.0 12.9 0.00 0.03 0.03 95 1015.1
20260505150634 1 22 9.7 12.9 0.00 0.03 0.03 95 1014.9
20260505150131 0 334 9.7 12.9 0.00 0.03 0.03 94 1014.9
20260505140600 0 9 16.1 25.7 0.00 0.03 0.03 95 1015.1
20260505125012 2 30 17.7 24.1 0.00 0.03 0.03 91 1014.6
20260505124504 2 359 9.7 14.5 0.00 0.03 0.03 91 1014.1
20260505124000 3 356 8.0 11.3 0.00 0.03 0.03 91 1014.1
20260505123457 3 348 3.2 9.7 0.00 0.03 0.03 91 1014.1
20260505122952 3 2 11.3 11.3 0.00 0.03 0.03 90 1013.9
20260505122450 4 22 4.8 14.5 0.00 0.03 0.03 89 1013.8
20260505121947 5 336 6.4 9.7 0.00 0.03 0.03 88 1013.5
20260505121443 5 31 4.8 6.4 0.00 0.03 0.03 87 1013.5
20260505120939 5 184 0.0 3.2 0.00 0.03 0.03 85 1013.6
20260505120436 5 279 3.2 3.2 0.00 0.03 0.03 84 1013.6
20260505115935 5 310 4.8 4.8 0.00 0.03 0.03 82 1013.6
20260505115431 5 294 4.8 4.8 0.00 0.03 0.03 81 1013.6
20260505114929 5 330 3.2 6.4 0.00 0.03 0.03 80 1013.5
20260505114425 5 194 3.2 3.2 0.00 0.03 0.03 80 1013.8
20260505113921 5 141 3.2 8.0 0.00 0.03 0.03 80 1013.5
20260505113418 5 154 1.6 4.8 0.00 0.03 0.03 81 1013.9
20260505112914 5 213 3.2 6.4 0.00 0.03 0.03 82 1013.4
20260505112412 5 242 8.0 8.0 0.00 0.03 0.03 84 1013.0
20260505111908 5 221 6.4 8.0 0.00 0.03 0.03 87 1013.5
20260505111403 5 139 4.8 9.7 0.00 0.03 0.03 89 1013.3
20260505110859 5 150 3.2 12.9 0.00 0.03 0.03 91 1013.3
20260505110357 5 176 4.8 6.4 0.00 0.03 0.03 92 1013.5
20260505101827 5 157 4.8 6.4 0.00 0.03 0.03 95 1013.2
20260505101322 5 152 3.2 4.8 0.00 0.03 0.03 95 1012.9
20260505100818 5 60 3.2 3.2 0.00 0.03 0.03 94 1013.0
20260505100315 5 17 0.0 3.2 0.00 0.03 0.03 94 1013.0
20260505095810 5 40 1.6 4.8 0.00 0.03 0.03 94 1013.2
20260505095308 5 149 0.0 3.2 0.00 0.03 0.03 94 1013.0
20260505094804 5 50 0.0 6.4 0.00 0.03 0.03 95 1013.3
20260505094301 5 263 0.0 3.2 0.00 0.03 0.03 95 1013.0
20260505093756 5 81 0.0 3.2 0.00 0.03 0.03 95 1013.3
20260505093254 5 150 3.2 3.2 0.00 0.03 0.03 95 1012.9
20260505092751 5 153 0.0 3.2 0.00 0.03 0.03 95 1012.8
20260505092249 5 135 0.0 3.2 0.00 0.03 0.03 95 1012.8
20260505091746 5 176 1.6 3.2 0.00 0.03 0.03 95 1012.9
20260505091244 5 180 6.4 6.4 0.00 0.03 0.03 95 1013.2
20260505090742 5 160 3.2 4.8 0.00 0.03 0.03 94 1013.3
20260505090240 5 17 0.0 1.6 0.00 0.03 0.03 94 1013.0
20260505085737 5 132 0.0 3.2 0.00 0.03 0.03 93 1013.0
20260505085235 5 30 1.6 3.2 0.00 0.03 0.03 93 1013.4
20260505084732 5 31 0.0 1.6 0.00 0.03 0.03 93 1013.4
20260505084231 5 60 0.0 0.0 0.00 0.03 0.03 93 1013.5
20260505083728 5 55 0.0 1.6 0.00 0.03 0.03 93 1013.5
20260505083224 5 80 0.0 3.2 0.00 0.03 0.03 93 1013.6
20260505082720 5 125 0.0 1.6 0.00 0.03 0.03 93 1013.6
20260505082218 5 87 0.0 3.2 0.00 0.03 0.03 92 1013.8
20260505081713 5 12 3.2 4.8 0.00 0.03 0.03 93 1014.0
20260505081211 5 9 3.2 4.8 0.00 0.03 0.03 93 1013.9
20260505080708 5 7 0.0 3.2 0.00 0.03 0.03 92 1013.8
20260505080204 5 5 1.6 6.4 0.00 0.03 0.03 92 1013.9
20260505075700 5 45 4.8 6.4 0.00 0.03 0.03 93 1013.9
20260505075157 5 21 1.6 4.8 0.00 0.03 0.03 93 1014.1
20260505074654 5 12 3.2 6.4 0.00 0.03 0.03 93 1014.3
20260505074151 5 15 3.2 3.2 0.00 0.03 0.03 93 1014.1
20260505073649 5 327 3.2 4.8 0.00 0.03 0.03 93 1014.3
20260505073147 5 345 3.2 3.2 0.00 0.03 0.03 93 1014.4
20260505072642 5 7 1.6 8.0 0.00 0.03 0.03 93 1014.5
20260505072139 5 322 3.2 4.8 0.00 0.03 0.03 93 1014.4
20260505071634 5 339 3.2 3.2 0.00 0.03 0.03 93 1014.3
20260505071132 5 339 1.6 3.2 0.00 0.03 0.03 92 1014.4
20260505070629 5 356 1.6 1.6 0.05 0.03 0.03 92 1014.5
20260505070125 5 335 3.2 3.2 0.05 0.03 0.03 92 1014.6
20260505065621 5 74 1.6 8.0 0.00 0.03 0.03 92 1014.5
20260505065118 5 346 3.2 8.0 0.00 0.03 0.03 91 1014.9
20260505064615 5 27 3.2 6.4 0.00 0.03 0.03 91 1014.5
20260505064114 5 19 4.8 6.4 0.00 0.03 0.03 91 1014.6
20260505063610 5 19 3.2 4.8 0.00 0.03 0.03 91 1014.4
20260505063106 5 332 1.6 3.2 0.00 0.03 0.03 91 1014.6
20260505062603 5 328 1.6 3.2 0.05 0.03 0.03 91 1014.6
20260505062100 5 323 0.0 4.8 0.05 0.03 0.03 90 1014.4
20260505061557 6 314 3.2 3.2 0.00 0.00 0.00 90 1014.4
20260505061055 6 3 3.2 3.2 0.05 0.00 0.00 89 1014.6
20260505060553 6 6 0.0 4.8 0.13 0.00 0.00 89 1014.5
20260505060049 6 42 3.2 4.8 0.05 0.15 0.15 87 1014.6
20260505055544 6 8 0.0 3.2 0.00 0.15 0.15 87 1014.9
20260505055041 6 41 0.0 3.2 0.00 0.15 0.15 87 1014.9
20260505054539 6 26 3.2 3.2 0.00 0.15 0.15 86 1015.1
20260505054037 6 353 0.0 6.4 0.00 0.15 0.15 86 1014.6
20260505053534 6 9 3.2 8.0 0.00 0.15 0.15 86 1014.9
20260505053030 6 20 6.4 6.4 0.00 0.15 0.15 86 1014.6
20260505052527 6 42 0.0 4.8 0.05 0.15 0.15 86 1014.9
20260505052025 6 127 3.2 8.0 0.05 0.15 0.15 86 1014.6
20260505051521 6 346 4.8 8.0 0.00 0.15 0.15 87 1014.6
20260505051020 6 344 4.8 8.0 0.05 0.15 0.15 87 1014.6
20260505050518 6 314 6.4 8.0 0.05 0.15 0.15 87 1014.5
20260505041445 6 58 6.4 8.0 0.00 0.13 0.13 83 1014.3
20260505040943 6 17 3.2 4.8 0.00 0.13 0.13 83 1014.1
20260505040440 6 352 8.0 8.0 0.00 0.13 0.13 82 1014.1
20260505035936 6 33 6.4 16.1 0.00 0.13 0.13 81 1014.5
20260505035432 6 37 8.0 9.7 0.00 0.13 0.13 82 1013.9
20260505034930 6 334 12.9 16.1 0.00 0.13 0.13 83 1013.8
20260505034426 6 56 6.4 9.7 0.05 0.13 0.13 85 1013.9
20260505033923 6 34 6.4 6.4 0.05 0.13 0.13 85 1014.4
20260505033420 6 33 8.0 16.1 0.00 0.13 0.13 83 1014.1
20260505032918 6 299 9.7 9.7 0.00 0.13 0.13 84 1014.4
20260505032415 6 18 8.0 9.7 0.00 0.13 0.13 84 1014.4
20260505031912 6 16 6.4 11.3 0.05 0.13 0.13 85 1014.1
20260505031409 6 348 6.4 11.3 0.05 0.13 0.13 84 1014.0
20260505030905 6 25 6.4 11.3 0.05 0.10 0.10 84 1013.9
20260505030401 7 32 6.4 9.7 0.05 0.10 0.10 84 1013.5
20260505025857 7 35 9.7 11.3 0.05 0.10 0.10 82 1014.0
20260505025355 7 0 14.5 17.7 0.05 0.10 0.10 81 1014.1
20260505024853 7 38 6.4 9.7 0.00 0.10 0.10 81 1014.0
20260505024351 7 0 4.8 9.7 0.00 0.10 0.10 80 1014.3
20260505023847 7 1 3.2 9.7 0.00 0.10 0.10 81 1014.0
20260505023344 7 7 3.2 8.0 0.00 0.10 0.10 79 1014.0
20260505022842 7 325 3.2 4.8 0.00 0.10 0.10 80 1014.0
20260505022338 7 315 8.0 8.0 0.05 0.10 0.10 79 1013.9
20260505021836 7 323 3.2 4.8 0.05 0.10 0.10 80 1014.0
20260505021332 7 10 3.2 6.4 0.00 0.08 0.08 77 1013.9
20260505020828 7 31 3.2 6.4 0.05 0.08 0.08 78 1013.8
20260505020324 7 19 4.8 6.4 0.05 0.08 0.08 77 1014.1
20260505015821 7 24 3.2 6.4 0.00 0.08 0.08 77 1013.9
20260505015318 7 0 4.8 6.4 0.00 0.08 0.08 77 1013.6
20260505014815 7 10 3.2 12.9 0.05 0.08 0.08 75 1013.6
20260505014312 7 0 4.8 11.3 0.05 0.05 0.05 76 1013.6
20260505013808 8 316 4.8 12.9 0.13 0.05 0.05 72 1013.2
20260505013306 8 337 6.4 14.5 0.18 0.05 0.05 69 1013.5
20260505012804 8 8 8.0 11.3 0.13 0.03 0.03 69 1013.6
20260505012304 9 2 14.5 27.4 0.13 0.03 0.03 63 1013.8
20260505011757 10 19 19.3 37.0 0.00 0.00 0.00 59 1013.8
20260505011254 10 335 19.3 30.6 0.00 0.00 0.00 56 1013.5
20260505010750 10 335 16.1 25.7 0.00 0.00 0.00 51 1013.0
20260505010247 11 330 8.0 20.9 0.00 0.00 0.00 47 1013.2
20260505005743 11 337 9.7 19.3 0.00 0.00 0.00 46 1013.2
20260505005240 11 331 14.5 17.7 0.00 0.00 0.00 46 1012.9
20260505004738 11 348 9.7 20.9 0.00 0.00 0.00 47 1012.8
20260505004233 11 330 11.3 19.3 0.00 0.00 0.00 47 1012.7
20260505003731 11 338 9.7 27.4 0.00 0.00 0.00 46 1012.5
20260505003228 11 358 11.3 17.7 0.00 0.00 0.00 44 1012.3
20260505002725 11 35 12.9 17.7 0.00 0.00 0.00 44 1012.2
20260505002222 12 327 9.7 24.1 0.00 0.00 0.00 44 1012.3
20260505001720 12 39 8.0 25.7 0.00 0.00 0.00 43 1011.8
20260505001217 12 30 12.9 25.7 0.00 0.00 0.00 43 1012.3
20260505000714 12 33 11.3 29.0 0.00 0.00 0.00 42 1012.2
20260505000212 12 35 17.7 27.4 0.00 0.00 0.00 39 1012.3
20260504235708 13 17 17.7 27.4 0.00 0.00 0.00 38 1012.0
20260504235204 14 4 11.3 20.9 0.00 0.00 0.00 35 1011.7
20260504234702 14 12 8.0 20.9 0.00 0.00 0.00 34 1011.5
20260504234159 14 27 9.7 12.9 0.00 0.00 0.00 35 1011.8
20260504233654 14 4 4.8 16.1 0.00 0.00 0.00 35 1011.7
20260504233150 14 23 8.0 12.9 0.00 0.00 0.00 35 1012.2
20260504232649 15 11 9.7 20.9 0.00 0.00 0.00 34 1011.9
20260504232145 15 357 14.5 24.1 0.00 0.00 0.00 34 1012.0
20260504231642 15 26 9.7 24.1 0.00 0.00 0.00 32 1011.9
20260504231138 15 356 8.0 12.9 0.00 0.00 0.00 34 1011.8
20260504230634 15 21 9.7 12.9 0.00 0.00 0.00 34 1011.9
20260504230133 15 36 14.5 17.7 0.00 0.00 0.00 33 1011.7
20260504225631 15 18 12.9 25.7 0.00 0.00 0.00 32 1011.7
20260504225127 15 22 9.7 17.7 0.00 0.00 0.00 31 1011.7
20260504224624 15 26 16.1 19.3 0.00 0.00 0.00 32 1011.7
20260504224120 15 20 11.3 24.1 0.00 0.00 0.00 32 1011.4
20260504223618 15 305 20.9 27.4 0.00 0.00 0.00 31 1011.2
20260504223113 15 16 20.9 24.1 0.00 0.00 0.00 31 1010.9
20260504222611 15 321 11.3 33.8 0.00 0.00 0.00 31 1011.0
20260504222108 16 313 22.5 27.4 0.00 0.00 0.00 30 1011.2
20260504221605 16 343 14.5 20.9 0.00 0.00 0.00 30 1011.3
20260504221102 16 3 11.3 27.4 0.00 0.00 0.00 29 1011.0
20260504220558 16 0 12.9 14.5 0.00 0.00 0.00 25 1011.2
20260504220056 16 343 11.3 17.7 0.00 0.00 0.00 26 1011.0
20260504215552 16 354 14.5 22.5 0.00 0.00 0.00 26 1011.0
20260504215049 16 358 12.9 24.1 0.00 0.00 0.00 26 1011.2
20260504214544 16 20 14.5 20.9 0.00 0.00 0.00 26 1011.0
20260504214042 16 6 12.9 20.9 0.00 0.00 0.00 25 1011.3
20260504213538 17 6 11.3 25.7 0.00 0.00 0.00 25 1011.2
20260504213035 17 21 17.7 25.7 0.00 0.00 0.00 25 1011.3
20260504212531 17 16 9.7 20.9 0.00 0.00 0.00 25 1011.0
20260504212029 17 48 8.0 29.0 0.00 0.00 0.00 24 1011.4
20260504211525 17 26 17.7 27.4 0.00 0.00 0.00 25 1011.2
20260504211022 17 319 17.7 24.1 0.00 0.00 0.00 24 1011.3
20260504210519 17 4 4.8 14.5 0.00 0.00 0.00 25 1011.2
20260504210016 16 4 12.9 22.5 0.00 0.00 0.00 26 1011.3
20260504205514 16 19 14.5 24.1 0.00 0.00 0.00 26 1011.3
20260504205012 16 8 14.5 25.7 0.00 0.00 0.00 26 1011.4
20260504204510 16 327 12.9 29.0 0.00 0.00 0.00 26 1011.4
20260504204009 17 355 24.1 30.6 0.00 0.00 0.00 27 1011.3
20260504203506 17 344 8.0 20.9 0.00 0.00 0.00 25 1011.3
20260504203002 17 0 17.7 20.9 0.00 0.00 0.00 24 1011.7
20260504202458 17 321 12.9 24.1 0.00 0.00 0.00 24 1011.3
20260504201955 17 16 8.0 20.9 0.00 0.00 0.00 24 1011.7
20260504201453 18 321 14.5 22.5 0.00 0.00 0.00 23 1011.3
20260504200950 19 340 9.7 22.5 0.00 0.00 0.00 22 1011.5
20260504200447 18 247 11.3 20.9 0.00 0.00 0.00 22 1011.4
20260504195943 18 216 9.7 24.1 0.00 0.00 0.00 22 1011.5
20260504195439 18 219 11.3 14.5 0.00 0.00 0.00 23 1011.7
20260504194936 17 252 6.4 19.3 0.00 0.00 0.00 22 1011.8
20260504194432 17 178 4.8 17.7 0.00 0.00 0.00 21 1011.9
20260504193928 18 232 9.7 19.3 0.00 0.00 0.00 21 1011.9
20260504193425 18 241 12.9 17.7 0.00 0.00 0.00 21 1011.8
20260504192924 18 214 9.7 14.5 0.00 0.00 0.00 21 1011.9
20260504192421 18 163 9.7 9.7 0.00 0.00 0.00 20 1011.7
20260504191920 18 154 6.4 6.4 0.00 0.00 0.00 19 1011.8
20260504191418 18 198 0.0 3.2 0.00 0.00 0.00 18 1011.4
20260504190913 18 33 0.0 3.2 0.00 0.00 0.00 18 1011.8
20260504190409 18 297 3.2 4.8 0.00 0.00 0.00 18 1011.7
20260504185905 17 312 8.0 9.7 0.00 0.00 0.00 19 1011.8